Tracking 25723 objects as of 27-Jun-2022
HD Live streaming from Space Station
objects crossing your sky now

DMSP 5D-2 F15 (USA 147)

Track DMSP 5D-2 F15 (USA 147) now!
10-day predictions
DMSP 5D-2 F15 (USA 147) is classified as:


NORAD ID: 25991
Int'l Code: 1999-067A
Perigee: 836.6 km
Apogee: 851.8 km
Inclination: 99.1 °
Period: 101.7 minutes
Semi major axis: 7215 km
RCS: Unknown
Launch date: December 12, 1999
Source: United States (US)
Launch site: AIR FORCE WESTERN TEST RANGE (AFWTR)

Near-polar orbits; investigate Earth's environment.
aabbcc
Your satellite tracking list
Your tracking list is empty




NASA's NSSDC Master Catalog

Two Line Element Set (TLE):
1 25991U 99067A   22177.59647602  .00000063  00000-0  54679-4 0  9999
2 25991  99.0520 169.3286 0010506 157.0908 313.5610 14.16547528165060
Source of the keplerian elements: McCants